{"data":{"norad_id":59403,"epoch":"2026-05-24T20:27:06.308640Z","epoch_age_seconds":87521,"freshness":"FRESH","line1":"1 59403U 24064F   26144.85215635  .00007696  00000+0  28877-3 0  9991","line2":"2 59403  43.0006 346.0652 0001460 268.4165  91.6520 15.27595109120870","mean_motion":15.27595109,"eccentricity":0.000146,"inclination_deg":43.0006,"raan_deg":346.0652,"arg_perigee_deg":268.4165,"mean_anomaly_deg":91.652,"bstar":0.00028877,"rev_number":12087,"period_min":94.265816348591,"perigee_km":482.00212806634,"apogee_km":484.00558119589,"semimajor_km":6861.1408546311,"source":"CELESTRAK","updated_at":"2026-05-25T13:38:18.939738Z"}}